Flag for Lebanon Weather past 2 weeks in Beirut, Lebanon

Now
84 °F

Partly sunny.


Feels Like: 90 °F
Forecast: 78 / 85 °F
Wind: 7 mph from West

Location: Beirut Airport

Current Time: Aug 29, 2014 at 8:16:38 PM

Latest Report: Aug 29, 2014 at 7:00 PM


Visibility: 5 mi

Pressure: 29.80 "Hg

Humidity: 66%

Dew point: 72 °F

Location of BeirutLocation

Historic Weather in Beirut — Graph

°F

Beirut temperature yesterday

Maximum temperature yesterday: 86 °F (at 12:00 PM)
Minimum temperature yesterday: 79 °F (at 4:00 AM)
Average temperature yesterday: 82 °F

Past Weeks' High & Low Weather Summary

 TemperatureHumidityPressure
High88 °F (Aug 15, 2:00 PM)84% (Aug 15, 1:00 AM)29.98 "Hg (Aug 15, 1:00 AM)
Low77 °F (Aug 20, 7:00 AM)49% (Aug 21, 4:00 PM)29.62 "Hg (Aug 18, 3:00 AM)
Average83 °F69%29.80 "Hg
* Reported Aug 14 7:00 PM — Aug 29 7:00 PM, Beirut, Weather by CustomWeather, © 2014

Note: Actual official high and low records may vary slightly from our data, if they occured in-between our weather recording intervals... More about our weather records

Advertising

Beirut weather history for previous 24 hours

 ConditionsComfort  
Time TempWeatherWind HumidityBarometerVisibility
7:00 PM
Aug 29
84 °FPartly sunny.7 mph66%29.80 "Hg5 mi
6:00 PM84 °FPassing clouds.7 mph70%29.80 "HgN/A
5:00 PM88 °FPassing clouds.9 mph62%29.80 "HgN/A
4:00 PM86 °FPassing clouds.9 mph66%29.80 "HgN/A
3:00 PM88 °FPassing clouds.12 mph62%29.80 "HgN/A
2:00 PM88 °FPassing clouds.12 mph62%29.80 "HgN/A
1:00 PM86 °FPassing clouds.12 mph59%29.83 "HgN/A
12:00 PM88 °FPassing clouds.12 mph55%29.83 "HgN/A
11:00 AM86 °FPassing clouds.9 mph55%29.83 "HgN/A
10:00 AM84 °FPassing clouds.8 mph55%29.83 "HgN/A
9:00 AM82 °FPassing clouds.8 mph58%29.83 "HgN/A
8:00 AM82 °FPassing clouds.6 mph58%29.83 "HgN/A
7:00 AM81 °FPassing clouds.5 mph62%29.80 "HgN/A
6:00 AM79 °FPassing clouds.5 mph65%29.80 "HgN/A
5:00 AM79 °FPassing clouds.3 mph70%29.77 "HgN/A
4:00 AM81 °FPassing clouds.7 mph66%29.77 "HgN/A
3:00 AM81 °FPassing clouds.5 mph66%29.80 "HgN/A
2:00 AM81 °FPassing clouds.3 mph66%29.80 "HgN/A
1:00 AM79 °FClear.6 mph70%29.80 "Hg5 mi
12:00 AM81 °FClear.6 mph70%29.80 "Hg5 mi
11:00 PM
Aug 28
81 °FClear.No wind70%29.80 "Hg5 mi
10:00 PM82 °FClear.3 mph66%29.80 "Hg5 mi
9:00 PM82 °FPassing clouds.3 mph70%29.80 "Hg5 mi
8:00 PM82 °FPassing clouds.3 mph66%29.77 "HgN/A
Weather by CustomWeather, © 2014

See weather overviewHow to use our weather pages